Location: Boiro
(42.6475°N, 8.8834°W)
Time: 15:11:27
(UTC+02:00)

Explorer 7 - Pass Details

Date: 02 July 2022
Orbit: 482 x 668 km, 50.3° (Epoch: 15 August)

Event Time Altitude Azimuth Distance (km) Brightness Sun altitude
Rises 23:43:27 0° 220° (SW) 2,982 10.5 -12.8°
Reaches altitude 10° 23:45:50 10° 215° (SW) 2,082 9.6 -13.1°
Maximum altitude 23:50:29 49° 141° (SE) 858 7.4 -13.7°
Drops below altitude 10° 23:55:09 10° 67° (ENE) 2,081 9.6 -14.2°
Sets 23:57:32 0° 62° (ENE) 2,981 10.5 -14.5°
